Regional Weather Roundup
Issued by NWS Little Rock, AR

Home | Current Version | Previous Version | Graphics & Text | Print | Product List | Glossary On
Versions: 1 2 3 4 5 6 7 8 9 10 11 12 13 14 15 16 17 18 19 20 21 22 23 24 25 26 27 28 29 30 31
000
ASUS44 KLZK 211405
RWRLZK

WEATHER ROUNDUP FOR ARKANSAS
NATIONAL WEATHER SERVICE LITTLE ROCK AR
900 AM CDT SAT OCT 21 2017

NOTE: "FAIR" INDICATES FEW OR NO CLOUDS BELOW 12,000 FEET WITH NO
SIGNIFICANT WEATHER AND/OR OBSTRUCTIONS TO VISIBILITY.

ARZ001-003-010-029-211500-
NORTHWEST ARKANSAS

CITY           SKY/WX    TMP DP  RH WIND       PRES   REMARKS
FAYETTEVILLE   MOSUNNY   69  63  81 S16G22    29.98R
FORT SMITH     CLOUDY    67  62  84 E6        29.98R
HARRISON       CLOUDY    67  62  84 SE8       30.02R
BENTONVILLE    MOSUNNY   68  61  78 S14G20    30.01R
ROGERS         CLOUDY    69  62  78 S12       30.00R
SILOAM SPGS    CLOUDY    67  61  81 S9        29.99R
HIGHFILL       MOSUNNY   68  62  81 S14       29.99R
SPRINGDALE     PTSUNNY   68  63  83 S18G24    29.99R
$$

ARZ004-005-016-211500-
NORTH CENTRAL ARKANSAS

CITY           SKY/WX    TMP DP  RH WIND       PRES   REMARKS
BATESVILLE     CLOUDY    68  61  78 SE6       30.08R
FLIPPIN        MOSUNNY   65  61  87 VRB3      30.03R
MTN HOME       CLOUDY    65  62  90 S5        30.03R
$$

ARZ040-041-211500-
WEST CENTRAL ARKANSAS

CITY           SKY/WX    TMP DP  RH WIND       PRES   REMARKS
MENA           CLOUDY    70  68  94 CALM      30.02R
$$

ARZ009-017-025-026-028-211500-
NORTHEAST ARKANSAS

CITY           SKY/WX    TMP DP  RH WIND       PRES   REMARKS
CORNING        FAIR      66  59  77 SE10      30.11S
JONESBORO      CLOUDY    67  57  70 SE8       30.11R
NEWPORT        PTSUNNY   65  59  81 SE8       30.09S
WALNUT RIDGE   CLOUDY    65  58  78 SE9       30.10R
BLYTHEVILLE    CLOUDY    66  54  65 S12       30.14R
$$

ARZ022-023-033-042-044-211500-
CENTRAL ARKANSAS

CITY           SKY/WX    TMP DP  RH WIND       PRES   REMARKS
LITTLE ROCK    PTSUNNY   69  64  84 SE12      30.05S
N LITTLE ROCK    N/A     66  62  87 S6        30.07S
JACKSONVILLE   MOSUNNY   67  63  87 E3        30.05S
SEARCY         CLOUDY    67  64  90 SE6       30.08S
HOT SPRINGS    CLOUDY    68  67  96 S9        30.03S
RUSSELLVILLE   CLOUDY    67  62  84 VRB7      30.02R
CLINTON        CLOUDY    61  59  94 CALM      30.06R FOG
$$

ARZ036-211500-
EAST ARKANSAS

CITY           SKY/WX    TMP DP  RH WIND       PRES   REMARKS
WEST MEMPHIS   CLOUDY    67  56  67 SE14      30.12R
$$

ARZ050-053-066-070-073-211500-
SOUTHWEST ARKANSAS

CITY           SKY/WX    TMP DP  RH WIND       PRES   REMARKS
ARKADELPHIA    CLOUDY    68  66  93 VRB5      30.04S
CAMDEN         CLOUDY    68  63  83 SE6       30.04S
TEXARKANA      CLOUDY    71  69  93 SE10      30.00S
EL DORADO      CLOUDY    67  67 100 SE8       30.05S
DE QUEEN       CLOUDY    68  68 100 SE6       29.99R FOG
$$

ARZ056-057-069-211500-
SOUTHEAST ARKANSAS

CITY           SKY/WX    TMP DP  RH WIND       PRES   REMARKS
PINE BLUFF     PTSUNNY   67  63  87 SE7       30.08R
STUTTGART      MOSUNNY   69  61  75 SE12      30.09R
MONTICELLO     CLOUDY    68  63  84 SE7       30.09R

$$






USA.gov is the U.S. government's official web portal to all federal, state and local government web resources and services.